This is the latest recevied weather packets stored in our database for station/object KD9DOE. If no packets are shown the sender has not sent any weather packets the latest 10 day(s).
| Time | Temp. | Humidity | Pressure | Rain* | Wind** | Luminosity | Snow |
|---|---|---|---|---|---|---|---|
| 1777919150 | 26.11° C | 26% | 997.6 hPa | 0 mm | - | 761 W/m² | - |
| 1777918848 | 26.11° C | 25% | 997.9 hPa | 0 mm | - | 796 W/m² | - |
| 1777918544 | 25.56° C | 26% | 997.6 hPa | 0 mm | - | 678 W/m² | - |
| 1777918243 | 25.56° C | 25% | 997.8 hPa | 0 mm | - | 749 W/m² | - |
| 1777917941 | 25.56° C | 26% | 997.8 hPa | 0 mm | - | 612 W/m² | - |
| 1777917640 | 26.11° C | 25% | 997.8 hPa | 0 mm | - | 616 W/m² | - |
| 1777917337 | 25.56° C | 25% | 997.8 hPa | 0 mm | - | 718 W/m² | - |
| 1777917034 | 25.56° C | 25% | 997.8 hPa | 0 mm | - | 803 W/m² | - |
| 1777916732 | 25.56° C | 25% | 997.8 hPa | 0 mm | - | 805 W/m² | - |
| 1777916428 | 25.56° C | 25% | 997.8 hPa | 0 mm | - | 764 W/m² | - |
| 1777916125 | 26.11° C | 25% | 997.9 hPa | 0 mm | - | 754 W/m² | - |
| 1777915822 | 25.56° C | 26% | 997.7 hPa | 0 mm | - | 744 W/m² | - |
| 1777915518 | 25° C | 26% | 997.8 hPa | 0 mm | - | 577 W/m² | - |
| 1777915215 | 25° C | 26% | 997.9 hPa | 0 mm | - | 871 W/m² | - |
| 1777914912 | 25° C | 26% | 997.7 hPa | 0 mm | - | 856 W/m² | - |
| 1777914609 | 25° C | 26% | 998 hPa | 0 mm | - | 332 W/m² | - |
| 1777914305 | 25° C | 26% | 998.2 hPa | 0 mm | - | 708 W/m² | - |
| 1777914003 | 25° C | 25% | 998 hPa | 0 mm | - | 738 W/m² | - |
| 1777913698 | 25° C | 26% | 998.2 hPa | 0 mm | - | 709 W/m² | - |
| 1777913395 | 25° C | 25% | 998.3 hPa | 0 mm | - | 720 W/m² | - |
| 1777913092 | 25.56° C | 25% | 998.3 hPa | 0 mm | - | 699 W/m² | - |
| 1777912788 | 25° C | 25% | 998.3 hPa | 0 mm | - | 723 W/m² | - |
| 1777912484 | 24.44° C | 26% | 998.4 hPa | 0 mm | - | 711 W/m² | - |
| 1777912181 | 24.44° C | 25% | 998.5 hPa | 0 mm | - | 705 W/m² | - |
| 1777911877 | 23.89° C | 26% | 998.7 hPa | 0 mm | - | 695 W/m² | - |
* Rain latest hour (hover to see other rain measurements)
** Current wind speed in m/s (hover to see current wind gust speed)